DAL1060 KATL-KAUS

Flight info

Callsign DAL1060
Flight time 2h 11m
Altitude 34000
Route POUNC2 GRGIA GARTS LCH WEEED WLEEE7
Aircraft A321/M-SDE3FGHIRWY/LB1

Departure

Time 2026-05-06 19:37
Airport Hartsfield Jackson Atlanta International Airport (KATL)

Arrival

Time 2026-05-06 21:49
Airport Austin Bergstrom International Airport (KAUS)
Time Latitude Longitude Altitude Speed Heading
2026-05-06 19:24 33.63807 -84.42876 1003 ft 0 kts 295°
2026-05-06 19:29 33.63804 -84.42868 1003 ft 2 kts 289°
2026-05-06 19:29 33.63802 -84.42850 1003 ft 2 kts 264°
2026-05-06 19:29 33.63806 -84.42832 1002 ft 2 kts 243°
2026-05-06 19:29 33.63815 -84.42818 1002 ft 2 kts 221°
2026-05-06 19:30 33.63828 -84.42808 1002 ft 2 kts 200°
2026-05-06 19:30 33.63843 -84.42804 1002 ft 2 kts 178°
2026-05-06 19:30 33.63856 -84.42805 1002 ft 0 kts 180°
2026-05-06 19:30 33.63858 -84.42805 1002 ft 0 kts 181°
2026-05-06 19:32 33.63850 -84.42805 1002 ft 2 kts 181°
2026-05-06 19:32 33.63829 -84.42806 1002 ft 3 kts 181°
2026-05-06 19:33 33.63795 -84.42806 1002 ft 6 kts 181°
2026-05-06 19:33 33.63742 -84.42807 1002 ft 9 kts 180°
2026-05-06 19:33 33.63677 -84.42787 1002 ft 11 kts 134°
2026-05-06 19:33 33.63656 -84.42686 1000 ft 14 kts 91°
2026-05-06 19:34 33.63656 -84.42547 996 ft 18 kts 91°
2026-05-06 19:34 33.63653 -84.42381 992 ft 21 kts 91°
2026-05-06 19:34 33.63652 -84.42191 985 ft 23 kts 90°
2026-05-06 19:34 33.63655 -84.41985 979 ft 25 kts 90°
2026-05-06 19:35 33.63654 -84.41761 971 ft 27 kts 90°
2026-05-06 19:35 33.63653 -84.41528 966 ft 28 kts 91°
2026-05-06 19:35 33.63654 -84.41312 962 ft 20 kts 90°
2026-05-06 19:35 33.63654 -84.41133 959 ft 21 kts 90°
2026-05-06 19:36 33.63651 -84.40953 956 ft 18 kts 92°
2026-05-06 19:36 33.63563 -84.40906 956 ft 15 kts 182°
2026-05-06 19:36 33.63474 -84.40951 956 ft 14 kts 248°
2026-05-06 19:36 33.63470 -84.41104 959 ft 36 kts 270°
2026-05-06 19:37 33.63470 -84.41689 971 ft 101 kts 270°
2026-05-06 19:37 33.63471 -84.42750 1001 ft 154 kts 269°
2026-05-06 19:37 33.63479 -84.44144 1383 ft 167 kts 268°
2026-05-06 19:37 33.63502 -84.45046 1810 ft 165 kts 267°
2026-05-06 19:38 33.63509 -84.46872 2631 ft 167 kts 266°
2026-05-06 19:38 33.63499 -84.48263 3003 ft 171 kts 266°
2026-05-06 19:38 33.63490 -84.49725 3237 ft 183 kts 266°
2026-05-06 19:38 33.63484 -84.51301 3477 ft 195 kts 266°
2026-05-06 19:39 33.63479 -84.52979 3724 ft 208 kts 267°
2026-05-06 19:39 33.63474 -84.54785 3905 ft 226 kts 267°
2026-05-06 19:39 33.63468 -84.56723 4184 ft 241 kts 268°
2026-05-06 19:39 33.63464 -84.58826 4575 ft 253 kts 268°
2026-05-06 19:40 33.63461 -84.60937 5163 ft 256 kts 268°
2026-05-06 19:40 33.63457 -84.63084 5802 ft 258 kts 268°
2026-05-06 19:40 33.63451 -84.65229 6455 ft 260 kts 268°
2026-05-06 19:40 33.63454 -84.67394 7147 ft 260 kts 268°
2026-05-06 19:41 33.63465 -84.69544 7860 ft 260 kts 268°
2026-05-06 19:41 33.63419 -84.71698 8588 ft 258 kts 261°
2026-05-06 19:41 33.62998 -84.73773 9269 ft 259 kts 250°
2026-05-06 19:41 33.62229 -84.75726 9981 ft 259 kts 244°
2026-05-06 19:42 33.61389 -84.77631 10518 ft 265 kts 243°
2026-05-06 19:42 33.60489 -84.79656 10799 ft 281 kts 243°
2026-05-06 19:42 33.59543 -84.81775 11070 ft 295 kts 244°
2026-05-06 19:42 33.58557 -84.83992 11334 ft 310 kts 243°
2026-05-06 19:43 33.57515 -84.86330 11578 ft 323 kts 243°
2026-05-06 19:43 33.56433 -84.88751 11863 ft 334 kts 243°
2026-05-06 19:43 33.55338 -84.91202 12363 ft 337 kts 243°
2026-05-06 19:43 33.54224 -84.93696 12908 ft 339 kts 243°
2026-05-06 19:44 33.53122 -84.96159 13422 ft 341 kts 243°
2026-05-06 19:44 33.52002 -84.98658 13958 ft 342 kts 243°
2026-05-06 19:44 33.50870 -85.01180 14506 ft 343 kts 244°
2026-05-06 19:44 33.49736 -85.03711 15036 ft 344 kts 244°
2026-05-06 19:45 33.48611 -85.06227 15553 ft 345 kts 244°
2026-05-06 19:45 33.47465 -85.08780 16010 ft 348 kts 244°
2026-05-06 19:45 33.46333 -85.11304 16510 ft 349 kts 244°
2026-05-06 19:45 33.45183 -85.13862 17003 ft 350 kts 244°
2026-05-06 19:46 33.44025 -85.16441 17454 ft 352 kts 245°
2026-05-06 19:46 33.42933 -85.19016 17881 ft 353 kts 248°
2026-05-06 19:46 33.41958 -85.21732 18343 ft 353 kts 251°
2026-05-06 19:46 33.41139 -85.24490 18793 ft 353 kts 255°
2026-05-06 19:47 33.40434 -85.27286 19213 ft 354 kts 255°
2026-05-06 19:47 33.39726 -85.30133 19620 ft 356 kts 256°
2026-05-06 19:47 33.39026 -85.32945 19997 ft 359 kts 256°
2026-05-06 19:47 33.38319 -85.35799 20417 ft 360 kts 256°
2026-05-06 19:48 33.37608 -85.38665 20816 ft 361 kts 256°
2026-05-06 19:48 33.36890 -85.41559 21205 ft 363 kts 256°
2026-05-06 19:48 33.36166 -85.44468 21573 ft 365 kts 256°
2026-05-06 19:48 33.35452 -85.47347 21909 ft 367 kts 256°
2026-05-06 19:49 33.34718 -85.50307 22260 ft 369 kts 256°
2026-05-06 19:49 33.33991 -85.53233 22577 ft 371 kts 256°
2026-05-06 19:49 33.33251 -85.56210 22904 ft 373 kts 255°
2026-05-06 19:49 33.32510 -85.59184 23255 ft 374 kts 256°
2026-05-06 19:50 33.31764 -85.62155 23597 ft 375 kts 256°
2026-05-06 19:50 33.31023 -85.65121 23915 ft 377 kts 255°
2026-05-06 19:50 33.30273 -85.68119 24253 ft 378 kts 255°
2026-05-06 19:50 33.29516 -85.71149 24582 ft 379 kts 256°
2026-05-06 19:51 33.28762 -85.74154 24933 ft 380 kts 256°
2026-05-06 19:51 33.28003 -85.77178 25236 ft 382 kts 256°
2026-05-06 19:51 33.27235 -85.80224 25536 ft 383 kts 256°
2026-05-06 19:51 33.26468 -85.83266 25845 ft 384 kts 256°
2026-05-06 19:52 33.25694 -85.86345 26154 ft 385 kts 256°
2026-05-06 19:52 33.24923 -85.89397 26446 ft 386 kts 256°
2026-05-06 19:52 33.24149 -85.92452 26700 ft 388 kts 256°
2026-05-06 19:52 33.23367 -85.95550 26966 ft 389 kts 256°
2026-05-06 19:53 33.22582 -85.98650 27291 ft 388 kts 256°
2026-05-06 19:53 33.21809 -86.01699 27661 ft 387 kts 257°
2026-05-06 19:53 33.21032 -86.04758 28044 ft 385 kts 257°
2026-05-06 19:53 33.20255 -86.07818 28419 ft 383 kts 257°
2026-05-06 19:54 33.19485 -86.10844 28768 ft 381 kts 257°
2026-05-06 19:54 33.18715 -86.13876 29113 ft 380 kts 257°
2026-05-06 19:54 33.17953 -86.16867 29452 ft 379 kts 256°
2026-05-06 19:54 33.17184 -86.19884 29785 ft 377 kts 257°
2026-05-06 19:55 33.16423 -86.22868 30126 ft 376 kts 256°
2026-05-06 19:55 33.15663 -86.25835 30469 ft 374 kts 256°
2026-05-06 19:55 33.14911 -86.28778 30757 ft 373 kts 257°
2026-05-06 19:55 33.14153 -86.31738 31044 ft 373 kts 256°
2026-05-06 19:56 33.13398 -86.34682 31370 ft 371 kts 256°
2026-05-06 19:56 33.12645 -86.37616 31681 ft 369 kts 256°
2026-05-06 19:56 33.11897 -86.40523 31966 ft 368 kts 256°
2026-05-06 19:56 33.11136 -86.43466 32238 ft 368 kts 257°
2026-05-06 19:57 33.10375 -86.46340 32471 ft 368 kts 255°
2026-05-06 19:57 33.09421 -86.49215 32661 ft 371 kts 251°
2026-05-06 19:57 33.08305 -86.51971 32826 ft 375 kts 247°
2026-05-06 19:57 33.07008 -86.54655 33031 ft 377 kts 244°
2026-05-06 19:58 33.05522 -86.57256 33243 ft 381 kts 240°
2026-05-06 19:58 33.03859 -86.59744 33438 ft 385 kts 237°
2026-05-06 19:58 33.02040 -86.62071 33650 ft 389 kts 233°
2026-05-06 19:58 33.00024 -86.64287 33833 ft 394 kts 230°
2026-05-06 19:59 32.97925 -86.66409 33955 ft 395 kts 229°
2026-05-06 19:59 32.95840 -86.68504 33954 ft 396 kts 229°
2026-05-06 19:59 32.91635 -86.72708 33958 ft 395 kts 228°
2026-05-06 20:00 32.87402 -86.76922 33956 ft 394 kts 228°
2026-05-06 20:00 32.83178 -86.81110 33955 ft 395 kts 229°
2026-05-06 20:01 32.78993 -86.85258 33953 ft 394 kts 228°
2026-05-06 20:01 32.74790 -86.89416 33950 ft 394 kts 229°
2026-05-06 20:02 32.70543 -86.93610 33951 ft 396 kts 229°
2026-05-06 20:02 32.66317 -86.97780 33951 ft 394 kts 229°
2026-05-06 20:03 32.62098 -87.01937 33948 ft 395 kts 228°
2026-05-06 20:03 32.57869 -87.06096 33948 ft 395 kts 229°
2026-05-06 20:04 32.53666 -87.10226 33949 ft 395 kts 228°
2026-05-06 20:04 32.49428 -87.14387 33946 ft 396 kts 228°
2026-05-06 20:05 32.45182 -87.18548 33945 ft 395 kts 228°
2026-05-06 20:05 32.40938 -87.22703 33947 ft 396 kts 228°
2026-05-06 20:06 32.36725 -87.26821 33940 ft 397 kts 228°
2026-05-06 20:06 32.32455 -87.30992 33941 ft 398 kts 228°
2026-05-06 20:07 32.28205 -87.35137 33933 ft 398 kts 228°
2026-05-06 20:07 32.23938 -87.39294 33927 ft 397 kts 229°
2026-05-06 20:08 32.19702 -87.43416 33925 ft 396 kts 228°
2026-05-06 20:08 32.15431 -87.47566 33922 ft 397 kts 228°
2026-05-06 20:09 32.11160 -87.51709 33923 ft 398 kts 228°
2026-05-06 20:09 32.06902 -87.55838 33926 ft 397 kts 228°
2026-05-06 20:10 32.02613 -87.59990 33931 ft 399 kts 228°
2026-05-06 20:10 31.98340 -87.64121 33930 ft 397 kts 228°
2026-05-06 20:11 31.94039 -87.68274 33932 ft 399 kts 227°
2026-05-06 20:11 31.89764 -87.72396 33933 ft 400 kts 227°
2026-05-06 20:12 31.85449 -87.76553 33937 ft 401 kts 228°
2026-05-06 20:12 31.81123 -87.80718 33940 ft 400 kts 227°
2026-05-06 20:13 31.76831 -87.84840 33931 ft 401 kts 228°
2026-05-06 20:13 31.72522 -87.88972 33936 ft 401 kts 227°
2026-05-06 20:14 31.68211 -87.93108 33941 ft 401 kts 227°
2026-05-06 20:14 31.63885 -87.97250 33942 ft 401 kts 227°
2026-05-06 20:15 31.59563 -88.01380 33945 ft 402 kts 227°
2026-05-06 20:15 31.55213 -88.05535 33950 ft 402 kts 227°
2026-05-06 20:16 31.50878 -88.09669 33948 ft 402 kts 227°
2026-05-06 20:16 31.46535 -88.13806 33948 ft 402 kts 227°
2026-05-06 20:17 31.42186 -88.17945 33938 ft 401 kts 227°
2026-05-06 20:17 31.37854 -88.22062 33932 ft 402 kts 227°
2026-05-06 20:18 31.33488 -88.26205 33939 ft 403 kts 227°
2026-05-06 20:18 31.29137 -88.30331 33934 ft 403 kts 227°
2026-05-06 20:19 31.24780 -88.34459 33931 ft 402 kts 227°
2026-05-06 20:19 31.20436 -88.38565 33933 ft 404 kts 227°
2026-05-06 20:20 31.16146 -88.42779 33930 ft 399 kts 232°
2026-05-06 20:20 31.12538 -88.47651 33939 ft 390 kts 240°
2026-05-06 20:21 31.09802 -88.53067 33943 ft 385 kts 249°
2026-05-06 20:21 31.07955 -88.58853 33944 ft 382 kts 257°
2026-05-06 20:22 31.06749 -88.64859 33940 ft 381 kts 259°
2026-05-06 20:22 31.05588 -88.70897 33944 ft 381 kts 259°
2026-05-06 20:23 31.04434 -88.76942 33942 ft 380 kts 259°
2026-05-06 20:23 31.03293 -88.82918 33938 ft 381 kts 259°
2026-05-06 20:24 31.02146 -88.88934 33942 ft 381 kts 259°
2026-05-06 20:24 31.00996 -88.94955 33947 ft 380 kts 259°
2026-05-06 20:25 30.99846 -89.00964 33942 ft 381 kts 259°
2026-05-06 20:25 30.98694 -89.06964 33941 ft 381 kts 259°
2026-05-06 20:26 30.97543 -89.12944 33941 ft 381 kts 259°
2026-05-06 20:26 30.96375 -89.18992 33945 ft 382 kts 259°
2026-05-06 20:27 30.95210 -89.25017 33933 ft 382 kts 259°
2026-05-06 20:27 30.94037 -89.31062 33929 ft 383 kts 259°
2026-05-06 20:28 30.92864 -89.37090 33930 ft 383 kts 259°
2026-05-06 20:28 30.91696 -89.43078 33928 ft 382 kts 259°
2026-05-06 20:29 30.90515 -89.49107 33926 ft 383 kts 259°
2026-05-06 20:29 30.89330 -89.55145 33924 ft 383 kts 259°
2026-05-06 20:30 30.87544 -89.64223 33918 ft 382 kts 259°
2026-05-06 20:31 30.86349 -89.70274 33920 ft 383 kts 259°
2026-05-06 20:31 30.85159 -89.76283 33925 ft 382 kts 258°
2026-05-06 20:32 30.83963 -89.82314 33929 ft 382 kts 259°
2026-05-06 20:32 30.82769 -89.88309 33931 ft 382 kts 259°
2026-05-06 20:33 30.81569 -89.94322 33930 ft 382 kts 258°
2026-05-06 20:33 30.80377 -90.00296 33922 ft 381 kts 258°
2026-05-06 20:34 30.79170 -90.06317 33915 ft 382 kts 258°
2026-05-06 20:34 30.77965 -90.12310 33911 ft 382 kts 258°
2026-05-06 20:35 30.76760 -90.18288 33904 ft 381 kts 258°
2026-05-06 20:35 30.75548 -90.24274 33901 ft 382 kts 258°
2026-05-06 20:36 30.74335 -90.30270 33898 ft 382 kts 258°
2026-05-06 20:36 30.73114 -90.36290 33899 ft 382 kts 258°
2026-05-06 20:37 30.71897 -90.42265 33899 ft 382 kts 258°
2026-05-06 20:37 30.70672 -90.48272 33900 ft 382 kts 258°
2026-05-06 20:38 30.69449 -90.54245 33901 ft 382 kts 258°
2026-05-06 20:38 30.68224 -90.60228 33896 ft 382 kts 258°
2026-05-06 20:39 30.66987 -90.66242 33895 ft 382 kts 258°
2026-05-06 20:39 30.65753 -90.72218 33891 ft 382 kts 258°
2026-05-06 20:40 30.64520 -90.78195 33888 ft 382 kts 258°
2026-05-06 20:40 30.63276 -90.84199 33889 ft 382 kts 258°
2026-05-06 20:41 30.62032 -90.90194 33891 ft 382 kts 258°
2026-05-06 20:41 30.60786 -90.96178 33892 ft 382 kts 258°
2026-05-06 20:42 30.59530 -91.02193 33891 ft 383 kts 258°
2026-05-06 20:42 30.58282 -91.08158 33893 ft 383 kts 258°
2026-05-06 20:43 30.57021 -91.14183 33894 ft 382 kts 257°
2026-05-06 20:43 30.55759 -91.20180 33893 ft 383 kts 258°
2026-05-06 20:44 30.54490 -91.26198 33891 ft 382 kts 258°
2026-05-06 20:44 30.53233 -91.32151 33890 ft 382 kts 258°
2026-05-06 20:45 30.51965 -91.38143 33886 ft 383 kts 258°
2026-05-06 20:45 30.50700 -91.44106 33884 ft 382 kts 258°
2026-05-06 20:46 30.49422 -91.50114 33877 ft 383 kts 257°
2026-05-06 20:46 30.48144 -91.56099 33873 ft 382 kts 258°
2026-05-06 20:47 30.46869 -91.62070 33867 ft 383 kts 258°
2026-05-06 20:47 30.45586 -91.68052 33866 ft 383 kts 257°
2026-05-06 20:48 30.44295 -91.74065 33865 ft 383 kts 257°
2026-05-06 20:48 30.43010 -91.80035 33869 ft 383 kts 257°
2026-05-06 20:49 30.41718 -91.86018 33869 ft 383 kts 257°
2026-05-06 20:49 30.40425 -91.91991 33870 ft 383 kts 257°
2026-05-06 20:50 30.39126 -91.97988 33877 ft 383 kts 257°
2026-05-06 20:50 30.37835 -92.03925 33880 ft 384 kts 257°
2026-05-06 20:51 30.36525 -92.09940 33878 ft 383 kts 257°
2026-05-06 20:51 30.35227 -92.15882 33876 ft 384 kts 257°
2026-05-06 20:52 30.33917 -92.21870 33868 ft 383 kts 257°
2026-05-06 20:52 30.32603 -92.27855 33859 ft 383 kts 257°
2026-05-06 20:53 30.31293 -92.33812 33856 ft 383 kts 257°
2026-05-06 20:53 30.29974 -92.39793 33858 ft 383 kts 257°
2026-05-06 20:54 30.28654 -92.45773 33852 ft 383 kts 257°
2026-05-06 20:54 30.27335 -92.51730 33859 ft 384 kts 257°
2026-05-06 20:55 30.26011 -92.57693 33854 ft 383 kts 257°
2026-05-06 20:55 30.24687 -92.63638 33860 ft 384 kts 257°
2026-05-06 20:56 30.23347 -92.69642 33863 ft 384 kts 257°
2026-05-06 20:56 30.22018 -92.75594 33862 ft 383 kts 256°
2026-05-06 20:57 30.20688 -92.81530 33865 ft 384 kts 256°
2026-05-06 20:57 30.19356 -92.87470 33869 ft 383 kts 256°
2026-05-06 20:58 30.18012 -92.93439 33871 ft 383 kts 256°
2026-05-06 20:58 30.16678 -92.99355 33870 ft 383 kts 256°
2026-05-06 20:59 30.15333 -93.05303 33868 ft 382 kts 256°
2026-05-06 20:59 30.14173 -93.11298 33868 ft 383 kts 260°
2026-05-06 21:00 30.13440 -93.17352 33868 ft 382 kts 263°
2026-05-06 21:00 30.12781 -93.23450 33869 ft 383 kts 263°
2026-05-06 21:01 30.12126 -93.29530 33868 ft 383 kts 262°
2026-05-06 21:01 30.11468 -93.35636 33869 ft 383 kts 262°
2026-05-06 21:02 30.10808 -93.41737 33868 ft 382 kts 262°
2026-05-06 21:02 30.10146 -93.47833 33866 ft 383 kts 262°
2026-05-06 21:03 30.09482 -93.53925 33864 ft 382 kts 262°
2026-05-06 21:03 30.08818 -93.59995 33862 ft 382 kts 262°
2026-05-06 21:04 30.08150 -93.66066 33863 ft 382 kts 262°
2026-05-06 21:04 30.07481 -93.72134 33860 ft 381 kts 262°
2026-05-06 21:05 30.06811 -93.78190 33862 ft 381 kts 262°
2026-05-06 21:05 30.06135 -93.84260 33861 ft 381 kts 262°
2026-05-06 21:06 30.05458 -93.90323 33860 ft 381 kts 262°
2026-05-06 21:06 30.04779 -93.96374 33858 ft 381 kts 262°
2026-05-06 21:07 30.04099 -94.02406 33856 ft 381 kts 262°
2026-05-06 21:07 30.03411 -94.08485 33854 ft 381 kts 262°
2026-05-06 21:08 30.02721 -94.14561 33851 ft 381 kts 261°
2026-05-06 21:08 30.02030 -94.20615 33850 ft 381 kts 262°
2026-05-06 21:09 30.01339 -94.26638 33851 ft 381 kts 262°
2026-05-06 21:09 30.00641 -94.32710 33848 ft 382 kts 262°
2026-05-06 21:10 29.99941 -94.38777 33846 ft 383 kts 262°
2026-05-06 21:10 29.99236 -94.44854 33843 ft 382 kts 262°
2026-05-06 21:11 29.98536 -94.50880 33839 ft 383 kts 261°
2026-05-06 21:11 29.97823 -94.56961 33839 ft 383 kts 261°
2026-05-06 21:12 29.97109 -94.63058 33832 ft 384 kts 261°
2026-05-06 21:12 29.96386 -94.69170 33824 ft 384 kts 261°
2026-05-06 21:13 29.95662 -94.75273 33820 ft 384 kts 261°
2026-05-06 21:13 29.94940 -94.81360 33817 ft 384 kts 261°
2026-05-06 21:14 29.94214 -94.87446 33818 ft 385 kts 261°
2026-05-06 21:14 29.93479 -94.93564 33819 ft 384 kts 261°
2026-05-06 21:15 29.92747 -94.99644 33821 ft 385 kts 261°
2026-05-06 21:15 29.92010 -95.05746 33825 ft 385 kts 261°
2026-05-06 21:16 29.91269 -95.11843 33830 ft 384 kts 261°
2026-05-06 21:16 29.90528 -95.17938 33834 ft 385 kts 261°
2026-05-06 21:17 29.89786 -95.24023 33836 ft 384 kts 260°
2026-05-06 21:17 29.89039 -95.30097 33837 ft 383 kts 261°
2026-05-06 21:18 29.88294 -95.36153 33838 ft 382 kts 261°
2026-05-06 21:18 29.87546 -95.42208 33838 ft 383 kts 261°
2026-05-06 21:19 29.86787 -95.48323 33840 ft 383 kts 261°
2026-05-06 21:19 29.86035 -95.54363 33842 ft 384 kts 261°
2026-05-06 21:20 29.85274 -95.60440 33843 ft 383 kts 261°
2026-05-06 21:20 29.84510 -95.66525 33848 ft 383 kts 260°
2026-05-06 21:21 29.83740 -95.72646 33599 ft 384 kts 260°
2026-05-06 21:21 29.83360 -95.75660 33324 ft 381 kts 260°
2026-05-06 21:21 29.82982 -95.78664 33047 ft 379 kts 260°
2026-05-06 21:21 29.82603 -95.81648 32788 ft 377 kts 259°
2026-05-06 21:22 29.82217 -95.84679 32535 ft 376 kts 260°
2026-05-06 21:22 29.81842 -95.87642 32285 ft 376 kts 259°
2026-05-06 21:22 29.81459 -95.90646 32033 ft 377 kts 259°
2026-05-06 21:22 29.81078 -95.93625 31782 ft 378 kts 260°
2026-05-06 21:23 29.80692 -95.96635 31396 ft 379 kts 259°
2026-05-06 21:23 29.80311 -95.99616 30825 ft 380 kts 259°
2026-05-06 21:23 29.79922 -96.02648 30123 ft 381 kts 259°
2026-05-06 21:23 29.79537 -96.05649 29364 ft 382 kts 259°
2026-05-06 21:24 29.79147 -96.08677 28575 ft 383 kts 258°
2026-05-06 21:24 29.78753 -96.11712 27761 ft 385 kts 258°
2026-05-06 21:24 29.78417 -96.14743 26942 ft 388 kts 261°
2026-05-06 21:24 29.78240 -96.17866 26200 ft 389 kts 264°
2026-05-06 21:25 29.78233 -96.20928 25653 ft 385 kts 267°
2026-05-06 21:25 29.78387 -96.24026 25099 ft 382 kts 270°
2026-05-06 21:25 29.78599 -96.27008 24579 ft 378 kts 270°
2026-05-06 21:25 29.78820 -96.30039 24067 ft 374 kts 270°
2026-05-06 21:26 29.79037 -96.32961 23559 ft 370 kts 270°
2026-05-06 21:26 29.79257 -96.35910 23054 ft 366 kts 270°
2026-05-06 21:26 29.79474 -96.38819 22555 ft 362 kts 270°
2026-05-06 21:26 29.79685 -96.41674 22056 ft 359 kts 270°
2026-05-06 21:27 29.79896 -96.44518 21579 ft 356 kts 270°
2026-05-06 21:27 29.80105 -96.47356 21109 ft 353 kts 270°
2026-05-06 21:27 29.80310 -96.50152 20608 ft 351 kts 270°
2026-05-06 21:27 29.80518 -96.52930 20103 ft 350 kts 271°
2026-05-06 21:28 29.81054 -96.55663 19605 ft 356 kts 283°
2026-05-06 21:28 29.82131 -96.58302 19087 ft 364 kts 295°
2026-05-06 21:28 29.83651 -96.60624 18549 ft 371 kts 304°
2026-05-06 21:28 29.85405 -96.62827 18039 ft 371 kts 306°
2026-05-06 21:29 29.87174 -96.65002 17560 ft 370 kts 306°
2026-05-06 21:29 29.88932 -96.67163 17071 ft 369 kts 306°
2026-05-06 21:29 29.90692 -96.69332 16557 ft 369 kts 306°
2026-05-06 21:29 29.92436 -96.71488 16054 ft 368 kts 306°
2026-05-06 21:30 29.94184 -96.73652 15533 ft 368 kts 306°
2026-05-06 21:30 29.95921 -96.75803 15040 ft 368 kts 306°
2026-05-06 21:30 29.97667 -96.77972 14505 ft 368 kts 307°
2026-05-06 21:30 29.99405 -96.80132 14001 ft 367 kts 307°
2026-05-06 21:31 30.01121 -96.82259 13766 ft 361 kts 307°
2026-05-06 21:31 30.02818 -96.84364 13561 ft 357 kts 307°
2026-05-06 21:31 30.04386 -96.86558 13260 ft 343 kts 298°
2026-05-06 21:31 30.05508 -96.88900 12971 ft 331 kts 288°
2026-05-06 21:32 30.06306 -96.91348 12508 ft 326 kts 284°
2026-05-06 21:32 30.07745 -96.96242 11637 ft 320 kts 285°
2026-05-06 21:32 30.08457 -96.98651 11175 ft 318 kts 285°
2026-05-06 21:33 30.09171 -97.01044 10765 ft 314 kts 285°
2026-05-06 21:33 30.09884 -97.03427 10374 ft 310 kts 286°
2026-05-06 21:33 30.10579 -97.05741 10233 ft 297 kts 286°
2026-05-06 21:33 30.11055 -97.07991 10117 ft 282 kts 275°
2026-05-06 21:34 30.11136 -97.10209 10005 ft 270 kts 266°
2026-05-06 21:34 30.11031 -97.12354 9708 ft 267 kts 265°
2026-05-06 21:34 30.10906 -97.14477 9336 ft 267 kts 265°
2026-05-06 21:34 30.10780 -97.16609 8960 ft 266 kts 265°
2026-05-06 21:35 30.10657 -97.18757 8593 ft 265 kts 265°
2026-05-06 21:35 30.10538 -97.20850 8234 ft 264 kts 265°
2026-05-06 21:35 30.10417 -97.22980 7879 ft 263 kts 265°
2026-05-06 21:35 30.10298 -97.25088 7523 ft 262 kts 265°
2026-05-06 21:36 30.10180 -97.27181 7166 ft 261 kts 265°
2026-05-06 21:36 30.10063 -97.29250 6935 ft 256 kts 265°
2026-05-06 21:36 30.09949 -97.31269 6783 ft 247 kts 265°
2026-05-06 21:36 30.09841 -97.33206 6624 ft 241 kts 266°
2026-05-06 21:37 30.09742 -97.35148 6293 ft 242 kts 266°
2026-05-06 21:37 30.09646 -97.37086 5970 ft 241 kts 266°
2026-05-06 21:37 30.09550 -97.39010 5668 ft 240 kts 266°
2026-05-06 21:37 30.09453 -97.40919 5357 ft 240 kts 266°
2026-05-06 21:38 30.09356 -97.42834 5045 ft 239 kts 266°
2026-05-06 21:38 30.09259 -97.44750 4738 ft 239 kts 267°
2026-05-06 21:38 30.09160 -97.46683 4436 ft 239 kts 267°
2026-05-06 21:38 30.09062 -97.48580 4141 ft 238 kts 268°
2026-05-06 21:39 30.08962 -97.50525 3989 ft 244 kts 268°
2026-05-06 21:39 30.08852 -97.52484 3956 ft 243 kts 264°
2026-05-06 21:39 30.08249 -97.54256 3938 ft 241 kts 229°
2026-05-06 21:39 30.06953 -97.55499 3958 ft 242 kts 216°
2026-05-06 21:40 30.05464 -97.56364 3947 ft 243 kts 193°
2026-05-06 21:40 30.03768 -97.56459 3963 ft 244 kts 178°
2026-05-06 21:40 30.02062 -97.56348 3966 ft 244 kts 177°
2026-05-06 21:40 30.00381 -97.56246 3971 ft 244 kts 178°
2026-05-06 21:41 29.98666 -97.56155 3974 ft 243 kts 178°
2026-05-06 21:41 29.96981 -97.56073 3950 ft 244 kts 178°
2026-05-06 21:41 29.95267 -97.55996 3868 ft 243 kts 178°
2026-05-06 21:41 29.93578 -97.55943 3773 ft 243 kts 183°
2026-05-06 21:42 29.91961 -97.56483 3661 ft 242 kts 214°
2026-05-06 21:42 29.90837 -97.57886 3538 ft 240 kts 246°
2026-05-06 21:42 29.90465 -97.59740 3456 ft 238 kts 268°
2026-05-06 21:42 29.90445 -97.61659 3354 ft 238 kts 276°
2026-05-06 21:43 29.90927 -97.63440 3235 ft 234 kts 307°
2026-05-06 21:43 29.92141 -97.64647 3137 ft 230 kts 335°
2026-05-06 21:43 29.93624 -97.65360 3047 ft 229 kts 341°
2026-05-06 21:43 29.95138 -97.65972 2982 ft 227 kts 342°
2026-05-06 21:44 29.96640 -97.66592 2978 ft 227 kts 341°
2026-05-06 21:44 29.98148 -97.67112 2977 ft 226 kts 349°
2026-05-06 21:44 29.99704 -97.67349 2981 ft 225 kts 356°
2026-05-06 21:44 30.01238 -97.67428 2971 ft 213 kts 359°
2026-05-06 21:45 30.02709 -97.67458 2976 ft 210 kts 360°
2026-05-06 21:45 30.04154 -97.67485 3040 ft 201 kts 360°
2026-05-06 21:45 30.05521 -97.67514 2894 ft 190 kts 360°
2026-05-06 21:45 30.06810 -97.67547 2644 ft 177 kts 359°
2026-05-06 21:46 30.07970 -97.67580 2455 ft 159 kts 360°
2026-05-06 21:46 30.09029 -97.67609 2238 ft 144 kts
2026-05-06 21:46 30.10020 -97.67637 2060 ft 140 kts
2026-05-06 21:46 30.10999 -97.67663 1892 ft 140 kts
2026-05-06 21:47 30.11975 -97.67689 1721 ft 139 kts
2026-05-06 21:47 30.12945 -97.67715 1540 ft 139 kts 360°
2026-05-06 21:47 30.13916 -97.67741 1351 ft 138 kts 360°
2026-05-06 21:47 30.14874 -97.67767 1170 ft 138 kts 360°
2026-05-06 21:48 30.15841 -97.67788 985 ft 137 kts
2026-05-06 21:48 30.16802 -97.67812 813 ft 136 kts 360°
2026-05-06 21:48 30.17748 -97.67846 632 ft 134 kts
2026-05-06 21:48 30.18643 -97.67867 550 ft 119 kts 359°
2026-05-06 21:49 30.19320 -97.67883 549 ft 71 kts 359°
2026-05-06 21:49 30.19633 -97.67891 549 ft 28 kts
2026-05-06 21:49 30.19806 -97.67867 549 ft 19 kts 24°
2026-05-06 21:49 30.19885 -97.67760 549 ft 15 kts 87°
2026-05-06 21:50 30.19886 -97.67639 549 ft 14 kts 92°
2026-05-06 21:50 30.19888 -97.67520 549 ft 14 kts 88°
2026-05-06 21:50 30.19892 -97.67399 549 ft 15 kts 87°
2026-05-06 21:50 30.19896 -97.67277 549 ft 15 kts 89°
2026-05-06 21:51 30.19898 -97.67155 549 ft 15 kts 88°
2026-05-06 21:51 30.19900 -97.67032 549 ft 15 kts 89°
2026-05-06 21:51 30.19902 -97.66909 549 ft 15 kts 88°
2026-05-06 21:51 30.19905 -97.66787 549 ft 15 kts 89°
2026-05-06 21:52 30.19936 -97.66692 549 ft 13 kts 15°
2026-05-06 21:52 30.20030 -97.66682 549 ft 13 kts
2026-05-06 21:52 30.20114 -97.66678 549 ft 8 kts 358°
2026-05-06 21:52 30.20129 -97.66679 549 ft 0 kts 358°